{"data":{"norad_id":44539,"epoch":"2026-05-25T04:28:43.491936Z","epoch_age_seconds":58525,"freshness":"FRESH","line1":"1 44539U 19060F   26145.18661449  .00017231  00000+0  43032-3 0  9996","line2":"2 44539  97.5584 294.3552 0007236 105.9437 254.2606 15.40208020372225","mean_motion":15.4020802,"eccentricity":0.0007236,"inclination_deg":97.5584,"raan_deg":294.3552,"arg_perigee_deg":105.9437,"mean_anomaly_deg":254.2606,"bstar":0.00043032,"rev_number":37222,"period_min":93.493864549543,"perigee_km":440.5572704648,"apogee_km":450.43243047881,"semimajor_km":6823.6318504718,"source":"CELESTRAK","updated_at":"2026-05-25T13:37:56.001854Z"}}